Location: �quirre
(50.4736°N, 2.2351°E)
Time: 10:42:06
(UTC+00:00)

Cosmos 1634 Rocket - Pass Details

Date: 07 August 2020
Orbit: 959 x 992 km, 82.9° (Epoch: 21 September)

Event Time Altitude Azimuth Distance (km) Brightness Sun altitude
Exits shadow 01:50:25 31° 202° (SSW) 1,653 4.6 -18.7°
Maximum altitude 01:53:37 74° 281° (W) 1,019 4.0 -18.4°
Drops below altitude 10° 01:59:53 10° 7° (N) 2,728 7.4 -17.9°
Sets 02:02:24 0° 9° (N) 3,675 8.3 -17.7°
